Location: Newark
(41.9364°N, 2.8061°E)
Time: 05:06:46
(UTC+00:00)

Transit 2A Rocket - All Passes

Search period start: 27 February 2020 00:00
Search period end: 08 March 2020 00:00
Orbit: 591 x 912 km, 66.7° (Epoch: 25 February)

Date Brightness Start Highest point End Pass type
(mag) Time Alt. Az. Time Alt. Az. Time Alt. Az.
27 Feb - 04:48:36 10° N 04:53:05 28° NE 04:57:53 10° ESE visible
27 Feb - 06:30:45 10° NW 06:35:50 48° WSW 06:41:20 10° S daylight
27 Feb - 19:26:54 10° SE 19:28:41 12° ESE 19:30:30 10° E night (unlit)
27 Feb - 21:06:19 10° SW 21:10:34 62° WNW 21:15:03 10° NNE night (unlit)
28 Feb - 04:06:35 10° N 04:10:14 19° NE 04:14:04 10° E visible
28 Feb - 05:48:03 10° NNW 05:53:21 81° WSW 05:59:06 10° SSE visible
28 Feb - 07:33:43 10° W 07:35:15 11° WSW 07:36:48 10° WSW daylight
28 Feb - 20:23:46 10° SSW 20:28:01 70° ESE 20:32:30 10° NE night (unlit)
28 Feb - 22:08:28 10° W 22:11:08 16° NW 22:13:54 10° N night (unlit)
29 Feb - 03:25:03 10° NNE 03:27:15 12° NE 03:29:31 10° ENE visible
29 Feb - 05:05:34 10° NNW 05:10:46 62° ENE 05:16:27 10° SE visible
29 Feb - 06:49:08 10° WNW 06:53:00 20° WSW 06:57:05 10° SSW daylight
29 Feb - 19:41:42 10° S 19:45:37 36° ESE 19:49:43 10° NE visible
29 Feb - 21:24:39 10° WSW 21:28:15 25° NW 21:32:01 10° N night (unlit)
01 Mar - 04:23:14 10° NNW 04:28:07 38° NE 04:33:24 10° ESE visible
01 Mar - 06:05:51 10° NW 06:10:40 34° WSW 06:15:48 10° S daylight
01 Mar - 19:00:17 10° SSE 19:03:20 19° ESE 19:06:28 10° ENE visible
01 Mar - 20:41:24 10° SW 20:45:30 42° NW 20:49:50 10° NNE visible
02 Mar - 03:41:04 10° N 03:45:21 25° NE 03:49:55 10° ESE visible
02 Mar - 05:22:59 10° NW 05:28:14 58° WSW 05:33:53 10° SSE visible
02 Mar - 19:58:35 10° SW 20:02:52 77° WNW 20:07:25 10° NNE visible
02 Mar - 21:44:39 10° WNW 21:46:19 12° NW 21:48:01 10° NNW visible
03 Mar - 02:59:09 10° N 03:02:27 17° NE 03:05:54 10° E visible
03 Mar - 04:40:23 10° NNW 04:45:43 86° ENE 04:51:31 10° SSE visible
03 Mar - 06:24:58 10° WNW 06:27:44 14° WSW 06:30:35 10° SW daylight
03 Mar - 19:16:11 10° SSW 19:20:23 55° ESE 19:24:48 10° NE visible
03 Mar - 21:00:15 10° W 21:03:20 18° NW 21:06:33 10° N visible
04 Mar - 02:18:00 10° NNE 02:19:25 11° NE 02:20:53 10° NE visible
04 Mar - 03:57:56 10° NNW 04:03:07 52° NE 04:08:43 10° SE visible
04 Mar - 05:41:08 10° WNW 05:45:27 24° WSW 05:50:01 10° SSW visible
04 Mar - 18:34:19 10° S 18:38:02 29° ESE 18:41:53 10° NE visible
04 Mar - 20:16:40 10° WSW 20:20:29 29° NW 20:24:32 10° NNE visible
05 Mar - 03:15:40 10° NNW 03:20:25 33° NE 03:25:31 10° ESE visible
05 Mar - 04:58:02 10° NW 05:03:05 41° WSW 05:08:29 10° S visible
05 Mar - 17:53:14 10° SE 17:55:46 15° ESE 17:58:22 10° ENE daylight
05 Mar - 19:33:34 10° SW 19:37:47 51° NW 19:42:15 10° NNE visible
06 Mar - 02:33:34 10° N 02:37:36 22° NE 02:41:52 10° E visible
06 Mar - 04:15:16 10° NW 04:20:37 69° WSW 04:26:24 10° SSE visible
06 Mar - 18:50:54 10° SSW 18:55:12 85° ESE 18:59:47 10° NNE visible
06 Mar - 20:36:09 10° WNW 20:38:29 14° NW 20:40:54 10° N visible
07 Mar - 01:51:47 10° N 01:54:39 15° NE 01:57:39 10° ENE visible
07 Mar - 03:32:43 10° NNW 03:38:05 73° ENE 03:43:52 10° SE visible
07 Mar - 05:16:41 10° WNW 05:20:12 17° WSW 05:23:51 10° SW visible
07 Mar - 18:08:40 10° S 18:12:46 44° ESE 18:17:04 10° NE visible
07 Mar - 19:52:08 10° W 19:55:33 22° NW 19:59:08 10° N visible
